This is the latest recevied weather packets stored in our database for station/object W8AN. If no packets are shown the sender has not sent any weather packets the latest 1 day(s).
| Time | Temp. | Humidity | Pressure | Rain* | Wind** | Luminosity | Snow |
|---|---|---|---|---|---|---|---|
| 1777993203 | 16.11° C | 71% | 4262.3 hPa | 0 mm | 5.81 m/s, 215° | 196 W/m² | - |
| 1777992900 | 16.11° C | 72% | 4262.1 hPa | 0 mm | 5.36 m/s, 224° | 180 W/m² | - |
| 1777992599 | 16.11° C | 72% | 4262.1 hPa | 0 mm | 7.6 m/s, 216° | 130 W/m² | - |
| 1777992296 | 16.11° C | 72% | 4261.7 hPa | 0 mm | 7.15 m/s, 239° | 125 W/m² | - |
| 1777991993 | 16.11° C | 72% | 4261.7 hPa | 0 mm | 5.81 m/s, 260° | 95 W/m² | - |
| 1777991691 | 16.11° C | 72% | 4261.6 hPa | 0 mm | 6.26 m/s, 246° | 92 W/m² | - |
| 1777991388 | 16.67° C | 71% | 4261.7 hPa | 0 mm | 5.81 m/s, 238° | 81 W/m² | - |
| 1777991085 | 16.67° C | 71% | 4261.3 hPa | 0 mm | 5.36 m/s, 272° | 164 W/m² | - |
| 1777990782 | 16.67° C | 70% | 4261 hPa | 0 mm | 5.81 m/s, 221° | 232 W/m² | - |
| 1777990479 | 16.67° C | 71% | 4260.7 hPa | 0 mm | 5.81 m/s, 226° | 460 W/m² | - |
| 1777990176 | 16.67° C | 71% | 4260.4 hPa | 0 mm | 5.36 m/s, 262° | 405 W/m² | - |
| 1777989873 | 16.67° C | 71% | 4260.1 hPa | 0 mm | 6.26 m/s, 221° | 486 W/m² | - |
| 1777989571 | 16.67° C | 71% | 4260.1 hPa | 0 mm | 5.36 m/s, 229° | 458 W/m² | - |
| 1777989266 | 16.11° C | 71% | 4260.4 hPa | 0 mm | 5.81 m/s, 216° | 445 W/m² | - |
| 1777988963 | 16.67° C | 72% | 4260.5 hPa | 0 mm | 4.92 m/s, 252° | 459 W/m² | - |
| 1777988659 | 16.67° C | 72% | 4260.4 hPa | 0 mm | 5.36 m/s, 234° | 434 W/m² | - |
| 1777988356 | 16.11° C | 71% | 4260.3 hPa | 0 mm | 7.6 m/s, 221° | 477 W/m² | - |
| 1777988053 | 16.11° C | 71% | 4260.3 hPa | 0 mm | 7.15 m/s, 218° | 224 W/m² | - |
| 1777987749 | 16.11° C | 71% | 4260.2 hPa | 0 mm | 5.81 m/s, 284° | 223 W/m² | - |
| 1777987446 | 16.11° C | 73% | 4260.4 hPa | 0 mm | 5.36 m/s, 232° | 203 W/m² | - |
| 1777987143 | 16.11° C | 72% | 4260.4 hPa | 0 mm | 7.15 m/s, 245° | 180 W/m² | - |
| 1777986840 | 16.11° C | 72% | 4260.4 hPa | 0 mm | 8.05 m/s, 270° | 171 W/m² | - |
| 1777986538 | 16.11° C | 72% | 4260.3 hPa | 0 mm | 5.81 m/s, 271° | 255 W/m² | - |
| 1777986235 | 16.11° C | 73% | 4260.3 hPa | 0 mm | 4.92 m/s, 240° | 281 W/m² | - |
| 1777985932 | 15.56° C | 72% | 4260.3 hPa | 0 mm | 5.81 m/s, 231° | 259 W/m² | - |
* Rain latest hour (hover to see other rain measurements)
** Current wind speed in m/s (hover to see current wind gust speed)